Tracking 30990 objects as of 8-Jul-2025
HD Live streaming from Space Station
objects crossing your sky now

IRIDIUM 42

Track IRIDIUM 42 now!
10-day predictions
IRIDIUM 42 is classified as:


NORAD ID: 25077
Int'l Code: 1997-077A
Perigee: 775.6 km
Apogee: 779.8 km
Inclination: 86.4 °
Period: 100.3 minutes
Semi major axis: 7148 km
RCS: 3.3675 m2 (large)
Launch date: December 8, 1997
Source: United States (US)
Launch site: Taiyaun Space Center, China (TSC)
Your satellite tracking list
Your tracking list is empty




NASA's NSSDC Master Catalog

Two Line Element Set (TLE):
1 25077U 97077A   25188.65647452  .00000257  00000-0  81057-4 0  9993
2 25077  86.3953 230.7397 0002921  81.7613 278.3915 14.36363561444137
Source of the keplerian elements: AFSPC